SWIATOWID (44426 NORAD) Tracking and Keplerian Element Data

This shows tracking and keplerian element data for the satellite.

Feedback or suggestion? Click here.




ElementValue
Catalog44426
NameSWIATOWID
Epoch Orbit1697
Epoch Day293.53068146
Epoch Year2019
RAAN98.2565
Inclination51.6427
Eccentricity0.0004817
Argument of Perigee139.9316
Mean Anonmoly286.1582
Mean Motion15.53548293
Decay Rate0.000126
L11 44426U 98067QL 19293.53068146 .00012600 00000-0 20139-3 0 9994
L22 44426 51.6427 98.2565 0004817 139.9316 286.1582 15.53548293 16974

Live tracking and technical data element details for SWIATOWID (NORAD 44426). SWIATOWID can be tracked NOW for your location showing map with azimuth and elevation plus other details from your city location.

Track the satellite on the map from your city or location and see movement details for azimuth, elevation, latitude, longitude, range, height, and movement on the map or in text.







IsCatalogInMostPopularTable: catalog: 44426, numindb: 14
Update: records affected: 1



GetName: 44426 SWIATOWID

Hit Count: updated at: Tue, 22 Oct 2019 23:49:29 GMT